DW6145 Weather Reports


Display with metric or nautical units.
time (UTC)temp
F
wind
direction
speed
MPH
gust
MPH
rain 1hr
in
rain 24hr
in
rain mn
in
humidity
%
barometer
mb
20260903081810 82 58 0.0 0.0 0.00 0.00 0.00 51 1262.7
20260903080809 82 0 0.0 0.0 0.00 0.00 0.00 51 559.5
20260903075808 81 32 0.0 0.0 0.00 0.00 0.00 52 783.4
20260903074806 80 25 0.0 0.0 0.00 0.00 0.00 55 641.7
20260903073804 79 23 0.0 0.0 0.00 0.00 0.00 56 1134.3
20260903072804 78 9 0.0 0.0 0.00 0.00 0.00 56 630.2
20260903071805 78 355 0.0 0.0 0.00 0.00 0.00 57 1104.9
20260903070804 76 5 0.0 0.0 0.00 0.00 0.00 60 1029.6
20260903065804 76 0 0.0 0.0 0.00 0.00 0.00 60 509.9
20260903064804 75 5 0.0 0.0 0.00 0.00 0.00 61 1200.1
20260903064254 75 27 0.0 0.0 0.00 0.00 0.00 62 667.6
20260903062804 74 36 2.0 10.0 0.00 0.00 0.00 63 651.8
20260903061804 73 19 4.0 10.0 0.00 0.00 0.00 64 895.6
20260903060804 73 15 3.0 9.0 0.00 0.00 0.00 65 579.9
20260903055807 72 5 2.0 9.0 0.00 0.00 0.00 66 479.5
20260903054804 71 11 2.0 9.0 0.00 0.00 0.00 67 988.5
20260903053804 71 14 2.0 8.0 0.00 0.00 0.00 68 513.0
20260903052805 70 15 3.0 10.0 0.00 0.00 0.00 68 945.6
20260903052242 70 16 2.0 7.0 0.00 0.00 0.00 68 740.3
20260903050804 70 29 1.0 6.0 0.00 0.00 0.00 68 563.1
20260903045804 70 36 2.0 6.0 0.00 0.00 0.00 68 750.2
20260903044804 70 345 4.0 10.0 0.00 0.00 0.00 68 707.9
20260903043805 70 0 3.0 9.0 0.00 0.00 0.00 68 1039.9
20260903042806 70 343 4.0 11.0 0.00 0.00 0.00 68 619.2
20260903041804 70 0 4.0 10.0 0.00 0.00 0.00 68 854.9
20260903040805 70 9 5.0 11.0 0.00 0.00 0.00 68 451.0
20260903035805 70 350 4.0 11.0 0.00 0.00 0.00 69 1038.0
20260903034804 69 40 3.0 11.0 0.00 0.00 0.00 69 743.8
20260903034251 69 11 5.0 11.0 0.00 0.00 0.00 69 497.7
20260903033252 69 355 3.0 10.0 0.00 0.00 0.00 70 1027.2
20260903031806 70 9 3.0 9.0 0.00 0.00 0.00 70 868.1
20260903031248 70 26 3.0 9.0 0.00 0.00 0.00 69 1016.0
20260903025804 70 344 4.0 9.0 0.00 0.00 0.00 69 473.8
20260903024804 70 17 2.0 8.0 0.00 0.00 0.00 69 437.3
20260903023805 70 0 1.0 9.0 0.00 0.00 0.00 69 602.6
20260903022804 70 0 2.0 9.0 0.00 0.00 0.00 69 1063.7
20260903021804 70 355 2.0 8.0 0.00 0.00 0.00 69 897.0
20260903020805 70 26 3.0 9.0 0.00 0.00 0.00 68 1031.7
20260903015805 71 20 2.0 8.0 0.00 0.00 0.00 68 503.7
20260903014804 71 5 3.0 10.0 0.00 0.00 0.00 68 810.7
20260903013805 71 11 3.0 11.0 0.00 0.00 0.00 68 431.3
20260903012804 71 17 3.0 9.0 0.00 0.00 0.00 67 597.8
20260903011807 71 9 3.0 10.0 0.00 0.00 0.00 67 531.1
20260903010805 72 342 5.0 11.0 0.00 0.00 0.00 66 599.3
20260903005804 72 342 5.0 11.0 0.00 0.00 0.00 66 1247.6
20260903004804 72 0 5.0 11.0 0.00 0.00 0.00 66 891.5
20260903003805 72 0 4.0 10.0 0.00 0.00 0.00 65 1028.7
20260903002804 72 15 5.0 13.0 0.00 0.00 0.00 65 522.6
20260903001804 72 350 5.0 11.0 0.00 0.00 0.00 65 682.4
20260903000805 73 5 5.0 12.0 0.00 0.00 0.00 65 811.4
20260903000255 73 0 8.0 15.0 0.00 0.00 0.00 65 1055.7
20260902235245 73 338 6.0 12.0 0.00 0.00 0.00 66 1004.5
20260902233805 73 18 7.0 15.0 0.00 0.00 0.00 64 1090.6
20260902233243 73 0 9.0 16.0 0.00 0.00 0.00 65 413.4
20260902231805 73 349 9.0 18.0 0.00 0.00 0.00 66 953.5
20260902230804 74 313 6.0 15.0 0.00 0.00 0.00 64 490.8
20260902225804 74 0 4.0 10.0 0.00 0.00 0.00 61 528.3
20260902225245 74 0 5.0 12.0 0.00 0.00 0.00 59 530.8
20260902223806 75 345 5.0 15.0 0.00 0.00 0.00 57 560.2
20260902223243 76 344 5.0 10.0 0.00 0.00 0.00 58 799.9
20260902221804 77 335 2.0 10.0 0.00 0.00 0.00 60 516.7
20260902220804 77 11 1.0 8.0 0.00 0.00 0.00 59 865.5
20260902215757 77 22 3.0 9.0 0.00 0.00 0.00 60 566.4
20260902214757 77 24 4.0 11.0 0.00 0.00 0.00 60 508.0
20260902213758 76 332 4.0 11.0 0.00 0.00 0.00 62 619.6
20260902212757 76 346 4.0 9.0 0.00 0.00 0.00 63 1114.1
20260902211757 76 355 4.0 10.0 0.00 0.00 0.00 64 526.0
20260902211719 76 26 3.0 6.0 0.00 0.00 0.00 65 727.5
20260902205753 76 0 1.0 5.0 0.00 0.00 0.00 65 503.0
20260902204751 77 0 0.0 3.0 0.00 0.00 0.00 66 1155.9
20260902203751 77 0 0.0 0.0 0.00 0.00 0.00 65 1180.5
20260902203230 76 0 1.0 6.0 0.00 0.00 0.00 66 567.3
20260902201749 76 0 2.0 6.0 0.00 0.00 0.00 66 1082.0
20260902200751 77 0 3.0 6.0 0.00 0.00 0.00 65 415.8
20260902195751 77 55 2.0 8.0 0.00 0.00 0.00 65 545.5
20260902194750 77 43 0.0 4.0 0.00 0.00 0.00 65 595.5
20260902193749 78 43 0.0 0.0 0.00 0.00 0.00 64 504.5
20260902192745 78 43 0.0 0.0 0.00 0.00 0.00 63 485.4
20260902191747 79 43 1.0 5.0 0.00 0.00 0.00 63 854.3
20260902190744 79 32 0.0 4.0 0.00 0.00 0.00 61 698.8
20260902185744 80 284 0.0 0.0 0.00 0.00 0.00 59 567.6
20260902184743 81 284 0.0 1.0 0.00 0.00 0.00 58 973.9
20260902183744 81 272 0.0 0.0 0.00 0.00 0.00 57 1055.5
20260902182742 82 272 0.0 0.0 0.00 0.00 0.00 55 696.3
20260902181737 82 272 0.0 0.0 0.00 0.00 0.00 55 1081.9
20260902180733 82 272 0.0 0.0 0.00 0.00 0.00 55 528.8
20260902175730 83 272 0.0 0.0 0.00 0.00 0.00 55 860.2
20260902174729 83 272 0.0 0.0 0.00 0.00 0.00 53 702.7
20260902173723 83 272 0.0 0.0 0.00 0.00 0.00 54 605.5
20260902172722 84 272 0.0 0.0 0.00 0.00 0.00 52 789.7
20260902171723 84 272 0.0 0.0 0.00 0.00 0.00 51 527.3
20260902170721 85 272 0.0 0.0 0.00 0.00 0.00 50 587.7
20260902165723 85 272 0.0 0.0 0.00 0.00 0.00 48 798.7
20260902164721 85 272 0.0 0.0 0.00 0.00 0.00 49 1053.3
20260902163720 86 272 0.0 0.0 0.00 0.00 0.00 49 654.6
20260902162718 86 272 0.0 0.0 0.00 0.00 0.00 47 755.7
20260902162154 86 272 0.0 0.0 0.00 0.00 0.00 47 560.4
20260902160715 87 272 0.0 0.0 0.00 0.00 0.00 47 457.4
20260902155713 87 277 0.0 0.0 0.00 0.00 0.00 45 1199.2
20260902154713 88 277 0.0 0.0 0.00 0.00 0.00 46 488.5
20260902153709 87 277 0.0 0.0 0.00 0.00 0.00 45 782.8
20260902152709 87 277 0.0 0.0 0.00 0.00 0.00 47 639.8
20260902151712 87 209 0.0 0.0 0.00 0.00 0.00 48 988.3
20260902150705 87 209 0.0 0.0 0.00 0.00 0.00 46 446.5
20260902145708 87 209 0.0 0.0 0.00 0.00 0.00 44 482.2
20260902144701 87 234 0.0 0.0 0.00 0.00 0.00 46 790.3
20260902143656 88 183 0.0 0.0 0.00 0.00 0.00 44 835.7
20260902143147 88 189 0.0 0.0 0.00 0.00 0.00 44 486.1
20260902142133 88 173 0.0 0.0 0.00 0.00 0.00 43 463.6
20260902140653 88 173 0.0 0.0 0.00 0.00 0.00 44 1013.8
20260902135649 88 122 0.0 0.0 0.00 0.00 0.00 43 1029.4
20260902134647 89 168 0.0 0.0 0.00 0.00 0.00 43 531.0
20260902133647 88 184 0.0 0.0 0.00 0.00 0.00 43 435.9
20260902132647 88 130 0.0 0.0 0.00 0.00 0.00 44 670.4
20260902131647 88 98 0.0 0.0 0.00 0.00 0.00 43 793.0
20260902130641 87 98 0.0 0.0 0.00 0.00 0.00 44 686.5
20260902125636 87 101 0.0 0.0 0.00 0.00 0.00 43 970.1
20260902125120 87 103 0.0 0.0 0.00 0.00 0.00 43 893.1
20260902123635 88 121 0.0 0.0 0.00 0.00 0.00 43 810.8
20260902122635 88 113 0.0 0.0 0.00 0.00 0.00 42 420.7
20260902121638 87 126 0.0 0.0 0.00 0.00 0.00 42 426.7
20260902121114 88 52 0.0 0.0 0.00 0.00 0.00 44 824.4
20260902115630 87 0 0.0 0.0 0.00 0.00 0.00 44 575.2
20260902114630 87 0 0.0 0.0 0.00 0.00 0.00 42 951.1
20260902113629 87 89 0.0 0.0 0.00 0.00 0.00 43 913.1
20260902112631 87 126 0.0 0.0 0.00 0.00 0.00 43 788.5
20260902111628 87 94 0.0 0.0 0.00 0.00 0.00 43 561.4
20260902110625 87 0 0.0 0.0 0.00 0.00 0.00 43 443.7
20260902105625 86 96 0.0 0.0 0.00 0.00 0.00 42 576.1
20260902104626 86 0 0.0 0.0 0.00 0.00 0.00 45 969.0
20260902103625 85 106 0.0 0.0 0.00 0.00 0.00 44 587.7
20260902102625 85 129 0.0 0.0 0.00 0.00 0.00 43 1245.5
20260902101627 85 101 0.0 0.0 0.00 0.00 0.00 44 555.4
20260902100627 84 115 0.0 0.0 0.00 0.00 0.00 45 951.5
20260902095623 84 109 0.0 0.0 0.00 0.00 0.00 44 411.8
20260902095106 84 0 0.0 0.0 0.00 0.00 0.00 45 639.9
20260902093618 84 110 0.0 0.0 0.00 0.00 0.00 45 974.7
20260902092617 83 94 0.0 0.0 0.00 0.00 0.00 44 460.7
20260902091620 82 103 0.0 0.0 0.00 0.00 0.00 46 512.3
20260902091107 83 0 0.0 0.0 0.00 0.00 0.00 45 417.7
20260902085613 82 95 0.0 0.0 0.00 0.00 0.00 47 536.6
20260902085052 82 0 0.0 0.0 0.00 0.00 0.00 47 430.2
20260902083613 82 0 0.0 0.0 0.00 0.00 0.00 48 504.0
20260902083057 81 113 0.0 12.0 0.00 0.00 0.00 48 1268.1